Lid_Strength_Index
8 8 8 8 8 8 8 8 10 8 8 7 6 5 4 4 4 4 4 3 3 3 3 3 3 2 2 2 2 1 2 2 2 1 1 1 1 1 1 1 1 1 1 1
11 8 8 9 8 8 8 7 8 7 8 5 4 4 4 4 4 4 3 3 2 1 0 1 3 2 2 2 2 1 2 2 2 1 1 1 1 1 1 1 1 1 1 1
13 9 9 11 9 8 7 7 7 9 6 5 5 5 5 4 4 3 3 3 1 1 1 1 1 2 2 2 1 2 2 2 2 2 2 2 1 1 1 1 1 1 1 1
12 11 16 9 6 6 7 6 6 6 5 5 5 4 4 3 3 3 3 3 2 2 1 2 1 1 1 1 2 2 2 2 2 2 2 2 2 2 2 1 2 1 1 1
13 13 11 9 7 7 8 8 5 6 5 5 4 4 4 3 2 2 2 2 2 2 2 1 2 1 2 2 2 2 2 2 2 2 2 2 2 2 2 2 2 2 1 1
11 14 15 9 6 5 5 10 7 5 5 5 4 7 7 4 3 3 3 3 2 2 2 2 2 1 2 2 2 3 2 2 2 1 2 2 2 2 2 1 2 1 1 1
12 13 10 7 7 5 11 13 6 6 6 6 7 6 4 3 3 3 3 3 2 2 2 2 1 2 0 1 3 2 2 2 2 2 2 2 2 1 2 2 2 2 2 1
11 12 14 7 7 10 8 6 6 5 5 5 5 4 4 3 3 3 3 3 2 3 2 2 1 2 2 2 1 2 2 2 2 2 2 2 2 2 2 2 2 2 2 2
9 10 6 7 7 6 6 6 7 7 7 5 5 5 4 4 4 3 3 3 3 3 3 2 2 1 2 2 1 1 2 2 2 2 2 2 2 2 2 2 2 3 3 3
8 7 7 7 6 6 6 6 6 7 7 6 6 6 5 4 4 3 3 3 3 3 3 3 2 2 2 1 1 2 2 2 2 2 2 2 2 2 2 2 3 3 3 3
8 7 7 7 7 7 7 6 6 6 7 6 5 5 5 4 3 3 3 3 3 3 3 3 2 2 1 1 1 2 2 2 2 2 2 2 3 7 2 3 6 3 2 2
10 7 7 7 6 6 6 6 6 6 6 6 5 5 5 4 3 3 3 3 3 3 3 3 2 2 1 1 1 2 3 3 3 2 2 2 5 6 16 17 18 18 15 5
8 6 6 6 5 6 6 6 6 6 5 5 5 5 5 4 3 4 3 3 4 3 3 3 3 3 2 2 1 2 3 2 2 3 2 3 3 4 6 11 17 18 18 16
9 8 9 7 7 5 5 5 5 5 4 5 5 3 4 4 3 3 3 3 3 3 3 3 3 3 2 1 2 2 2 7 2 2 2 2 3 3 3 3 4 7 15 15
6 7 9 7 7 6 5 5 5 5 5 5 4 4 3 3 3 3 3 3 3 3 3 3 3 3 2 2 2 2 2 2 1 2 2 3 2 2 2 3 4 6 7 11
5 5 7 8 7 7 6 6 6 6 5 5 4 4 3 3 3 3 3 3 4 4 3 3 3 2 2 1 2 2 3 6 4 2 2 2 2 3 3 3 3 3 3 4
8 8 6 7 7 7 7 6 5 5 5 5 5 4 3 3 3 3 3 3 3 3 3 3 3 2 2 2 2 2 2 2 5 2 2 2 2 3 3 3 3 2 3 5
7 6 5 5 5 6 5 5 5 5 5 4 3 3 3 4 4 4 3 3 3 3 3 2 1 1 1 1 1 2 2 2 2 2 2 2 2 2 2 2 2 2 2 4
7 7 6 6 6 6 5 4 4 4 4 3 4 4 4 5 5 4 3 4 4 4 3 2 3 2 1 1 1 1 2 2 2 2 2 3 2 2 2 2 2 2 2 2
8 7 7 8 7 8 7 6 5 5 5 5 7 7 8 7 7 7 8 8 7 4 4 3 2 2 2 2 2 2 2 2 2 2 2 2 2 2 2 4 3 2 2 2
7 7 7 7 8 8 8 7 6 6 6 6 7 7 8 8 9 9 10 10 9 8 7 4 2 2 3 2 2 2 2 3 3 3 2 3 3 2 2 2 2 2 2 2
6 6 7 6 7 8 8 8 8 7 7 7 7 7 8 9 10 9 9 10 9 9 8 7 6 5 4 4 4 4 4 3 3 4 4 4 3 3 3 5 5 4 5 3
6 6 6 7 6 7 7 8 8 8 9 9 8 8 9 9 10 11 11 9 9 9 9 8 8 7 7 6 5 5 5 5 4 4 3 3 4 5 5 6 7 7 7 6
6 6 6 6 6 6 7 8 8 9 8 9 10 8 8 8 9 9 9 9 9 9 9 8 8 7 7 6 6 7 6 7 6 5 5 7 5 4 4 5 5 5 6 8
4 4 5 6 7 7 7 7 8 8 9 10 9 9 9 8 9 9 9 9 10 9 9 9 8 8 8 8 8 7 7 7 6 6 6 6 6 6 7 7 6 5 6 7
4 5 5 5 6 7 7 7 8 8 8 9 9 9 9 9 9 9 9 9 9 9 9 9 9 8 8 8 7 7 8 8 7 7 7 7 6 6 6 7 8 9 10 10
4 6 5 5 5 5 6 7 8 9 9 8 9 8 9 9 9 9 9 9 9 9 9 9 9 9 9 8 8 8 7 7 9 7 6 6 6 6 6 6 6 7 9 9